When you browse on this site, cookies collect data to enhance your experience and personalize the content and advertising you see.
Visit our Privacy Policy to learn more. By continuing to use the site, you agree to this use of cookies and data.
  • In Spain
  • List of Countries
  • For 7 days
  • Water Temperature
  • Weather Map
  • Weather Widgets
  • user-avatar
    Login

    Hourly Weather Tarim

    Today, 20 October, Sunday

    Time Temperature Precipitation Wind Pressure Humidity
    00:00 +23°C° 0 mm 2 mps 707 mmHg 52%
    01:00 +23°C° 0 mm 2 mps 707 mmHg 57%
    02:00 +21°C° 0 mm 2 mps 707 mmHg 63%
    03:00 +21°C° 0 mm 1 mps 707 mmHg 68%
    04:00 +21°C° 0 mm 1 mps 707 mmHg 71%
    05:00 +21°C° 0 mm 1 mps 708 mmHg 73%
    06:00 +20°C° 0 mm 1 mps 708 mmHg 75%
    07:00 +23°C° 0 mm 1 mps 708 mmHg 63%
    08:00 +26°C° 0 mm 1 mps 709 mmHg 51%
    09:00 +29°C° 0 mm 1 mps 709 mmHg 37%
    10:00 +31°C° 0 mm 2 mps 708 mmHg 30%
    11:00 +34°C° 0 mm 3 mps 708 mmHg 23%
    12:00 +35°C° 0 mm 4 mps 708 mmHg 16%
    13:00 +36°C° 0 mm 4 mps 707 mmHg 14%
    14:00 +37°C° 0 mm 5 mps 706 mmHg 12%
    15:00 +37°C° 0 mm 5 mps 706 mmHg 11%
    16:00 +35°C° 0 mm 5 mps 706 mmHg 12%
    17:00 +33°C° 0 mm 5 mps 706 mmHg 14%
    18:00 +30°C° 0 mm 5 mps 707 mmHg 16%
    19:00 +29°C° 0 mm 4 mps 707 mmHg 20%
    20:00 +27°C° 0 mm 4 mps 707 mmHg 24%
    21:00 +26°C° 0 mm 3 mps 708 mmHg 28%
    22:00 +25°C° 0 mm 3 mps 707 mmHg 34%
    23:00 +24°C° 0 mm 3 mps 707 mmHg 39%

    Tomorrow, 21 October, Monday

    Time Temperature Precipitation Wind Pressure Humidity
    00:00 +23°C° 0 mm 2 mps 707 mmHg 45%
    01:00 +21°C° 0 mm 2 mps 707 mmHg 48%
    02:00 +21°C° 0 mm 1 mps 707 mmHg 52%
    03:00 +21°C° 0 mm 1 mps 707 mmHg 56%
    04:00 +21°C° 0 mm 1 mps 707 mmHg 57%
    05:00 +18°C° 0 mm 0 mps 707 mmHg 58%
    06:00 +18°C° 0 mm 0 mps 707 mmHg 59%
    07:00 +23°C° 0 mm 1 mps 708 mmHg 50%
    08:00 +26°C° 0 mm 1 mps 708 mmHg 40%
    09:00 +29°C° 0 mm 2 mps 709 mmHg 30%
    10:00 +31°C° 0 mm 3 mps 708 mmHg 25%
    11:00 +35°C° 0 mm 5 mps 708 mmHg 19%
    12:00 +38°C° 0 mm 6 mps 707 mmHg 13%
    13:00 +38°C° 0 mm 7 mps 707 mmHg 12%
    14:00 +38°C° 0 mm 7 mps 706 mmHg 11%
    15:00 +39°C° 0 mm 7 mps 705 mmHg 10%
    16:00 +36°C° 0 mm 6 mps 705 mmHg 12%
    17:00 +33°C° 0 mm 5 mps 706 mmHg 14%
    18:00 +30°C° 0 mm 4 mps 706 mmHg 16%
    19:00 +29°C° 0 mm 4 mps 706 mmHg 19%
    20:00 +28°C° 0 mm 3 mps 706 mmHg 22%
    21:00 +27°C° 0 mm 3 mps 707 mmHg 24%
    22:00 +26°C° 0 mm 3 mps 706 mmHg 28%
    23:00 +24°C° 0 mm 2 mps 706 mmHg 32%

    Day after tomorrow, 22 October, Tuesday

    Time Temperature Precipitation Wind Pressure Humidity
    00:00 +23°C° 0 mm 2 mps 706 mmHg 36%
    01:00 +21°C° 0 mm 2 mps 706 mmHg 42%
    02:00 +22°C° 0 mm 1 mps 705 mmHg 49%
    03:00 +21°C° 0 mm 1 mps 705 mmHg 55%
    04:00 +20°C° 0 mm 1 mps 705 mmHg 57%
    05:00 +20°C° 0 mm 1 mps 706 mmHg 59%
    06:00 +18°C° 0 mm 0 mps 706 mmHg 61%
    07:00 +24°C° 0 mm 1 mps 707 mmHg 50%
    08:00 +27°C° 0 mm 2 mps 707 mmHg 39%
    09:00 +30°C° 0 mm 3 mps 708 mmHg 27%
    10:00 +33°C° 0 mm 4 mps 707 mmHg 23%
    11:00 +35°C° 0 mm 5 mps 707 mmHg 18%
    12:00 +38°C° 0 mm 6 mps 706 mmHg 14%
    13:00 +38°C° 0 mm 6 mps 706 mmHg 13%
    14:00 +39°C° 0 mm 6 mps 705 mmHg 12%
    15:00 +39°C° 0 mm 6 mps 705 mmHg 10%
    16:00 +36°C° 0 mm 5 mps 705 mmHg 12%
    17:00 +34°C° 0 mm 4 mps 705 mmHg 14%
    18:00 +30°C° 0 mm 3 mps 705 mmHg 16%
    19:00 +29°C° 0 mm 3 mps 705 mmHg 18%
    20:00 +27°C° 0 mm 3 mps 706 mmHg 21%
    21:00 +26°C° 0 mm 2 mps 706 mmHg 24%
    22:00 +25°C° 0 mm 2 mps 706 mmHg 29%
    23:00 +24°C° 0 mm 2 mps 706 mmHg 33%

    23 October, Wednesday

    Time Temperature Precipitation Wind Pressure Humidity
    00:00 +23°C° 0 mm 2 mps 706 mmHg 38%
    01:00 +22°C° 0 mm 1 mps 705 mmHg 42%
    02:00 +22°C° 0 mm 1 mps 705 mmHg 45%
    03:00 +21°C° 0 mm 1 mps 705 mmHg 49%
    04:00 +21°C° 0 mm 1 mps 705 mmHg 51%
    05:00 +20°C° 0 mm 1 mps 706 mmHg 53%
    06:00 +18°C° 0 mm 0 mps 706 mmHg 55%
    07:00 +24°C° 0 mm 1 mps 707 mmHg 45%
    08:00 +27°C° 0 mm 2 mps 707 mmHg 36%
    09:00 +30°C° 0 mm 3 mps 708 mmHg 26%
    10:00 +33°C° 0 mm 4 mps 707 mmHg 21%
    11:00 +34°C° 0 mm 5 mps 707 mmHg 17%
    12:00 +36°C° 0 mm 5 mps 706 mmHg 13%
    13:00 +36°C° 0 mm 5 mps 706 mmHg 12%
    14:00 +37°C° 0 mm 5 mps 705 mmHg 11%
    15:00 +37°C° 0 mm 5 mps 705 mmHg 10%
    16:00 +35°C° 0 mm 5 mps 705 mmHg 11%
    17:00 +33°C° 0 mm 4 mps 705 mmHg 13%
    18:00 +30°C° 0 mm 4 mps 705 mmHg 15%
    19:00 +28°C° 0 mm 3 mps 706 mmHg 20%
    20:00 +26°C° 0 mm 3 mps 706 mmHg 26%
    21:00 +25°C° 0 mm 2 mps 706 mmHg 31%
    22:00 +24°C° 0 mm 2 mps 706 mmHg 36%
    23:00 +23°C° 0 mm 2 mps 706 mmHg 41%

    24 October, Thursday

    Time Temperature Precipitation Wind Pressure Humidity
    00:00 +22°C° 0 mm 1 mps 706 mmHg 46%
    01:00 +21°C° 0 mm 1 mps 706 mmHg 47%
    02:00 +21°C° 0 mm 1 mps 705 mmHg 49%
    03:00 +20°C° 0 mm 1 mps 705 mmHg 50%
    04:00 +18°C° 0 mm 0 mps 706 mmHg 49%
    05:00 +18°C° 0 mm 0 mps 706 mmHg 48%
    06:00 +18°C° 0 mm 0 mps 707 mmHg 47%
    07:00 +23°C° 0 mm 1 mps 707 mmHg 39%
    08:00 +27°C° 0 mm 2 mps 708 mmHg 30%
    09:00 +30°C° 0 mm 3 mps 709 mmHg 22%
    10:00 +33°C° 0 mm 4 mps 708 mmHg 20%
    11:00 +34°C° 0 mm 5 mps 707 mmHg 17%
    12:00 +36°C° 0 mm 6 mps 707 mmHg 14%
    13:00 +36°C° 0 mm 5 mps 706 mmHg 14%
    14:00 +37°C° 0 mm 5 mps 706 mmHg 13%
    15:00 +37°C° 0 mm 4 mps 705 mmHg 12%
    16:00 +35°C° 0 mm 4 mps 706 mmHg 13%
    17:00 +33°C° 0 mm 4 mps 706 mmHg 15%
    18:00 +30°C° 0 mm 4 mps 706 mmHg 16%
    19:00 +28°C° 0 mm 4 mps 706 mmHg 23%
    20:00 +27°C° 0 mm 3 mps 706 mmHg 30%
    21:00 +25°C° 0 mm 3 mps 707 mmHg 37%
    22:00 +24°C° 0 mm 2 mps 706 mmHg 45%
    23:00 +23°C° 0 mm 1 mps 706 mmHg 53%

    25 October, Friday

    Time Temperature Precipitation Wind Pressure Humidity
    00:00 +20°C° 0 mm 0 mps 706 mmHg 61%
    01:00 +19°C° 0 mm 0 mps 705 mmHg 62%
    02:00 +19°C° 0 mm 0 mps 705 mmHg 64%
    03:00 +18°C° 0 mm 0 mps 705 mmHg 65%
    04:00 +18°C° 0 mm 0 mps 706 mmHg 63%
    05:00 +18°C° 0 mm 0 mps 706 mmHg 62%
    06:00 +18°C° 0 mm 0 mps 707 mmHg 60%
    07:00 +23°C° 0 mm 1 mps 707 mmHg 48%
    08:00 +27°C° 0 mm 1 mps 708 mmHg 36%
    09:00 +30°C° 0 mm 2 mps 709 mmHg 24%
    10:00 +33°C° 0 mm 3 mps 708 mmHg 20%
    11:00 +35°C° 0 mm 4 mps 707 mmHg 17%
    12:00 +37°C° 0 mm 5 mps 707 mmHg 14%
    13:00 +37°C° 0 mm 5 mps 706 mmHg 13%
    14:00 +37°C° 0 mm 5 mps 706 mmHg 13%
    15:00 +37°C° 0 mm 5 mps 705 mmHg 12%
    16:00 +35°C° 0 mm 4 mps 706 mmHg 14%
    17:00 +33°C° 0 mm 4 mps 706 mmHg 16%
    18:00 +29°C° 0 mm 3 mps 706 mmHg 19%
    19:00 +28°C° 0 mm 3 mps 706 mmHg 25%
    20:00 +26°C° 0 mm 3 mps 706 mmHg 31%
    21:00 +25°C° 0 mm 2 mps 706 mmHg 37%
    22:00 +24°C° 0 mm 2 mps 706 mmHg 39%
    23:00 +23°C° 0 mm 1 mps 706 mmHg 41%
    Show more